Location: Cerda�ola
(41.4919°N, 2.1403°E)
Time: 10:11:56
(UTC+00:00)

Daily predictions for brighter satellites

Satellite Brightness Start Highest point End
(mag) Time Altitude Azimuth Time Altitude Azimuth Time Altitude Azimuth
NOSS 3-1 (A) 4.2 18:25:36 10° NW 18:33:20 85° NE 18:42:06 10° SE
S3M 4.2 18:32:09 10° SSE 18:38:20 55° E 18:44:33 10° NNE
Ariane Rocket 3.5 18:36:04 10° SE 18:40:44 38° ENE 18:45:25 10° N
YAOGAN 1 3.0 18:36:31 10° S 18:40:49 70° WSW 18:45:09 10° NNW
STARLINK-1224 3.5 18:36:58 10° SW 18:40:57 68° SE 18:44:57 10° ENE
Meteor 2-14 Rocket 4.4 18:36:32 10° N 18:42:38 84° E 18:48:42 10° S
Lacrosse 4 Rocket 4.3 18:39:55 10° WNW 18:43:09 20° WSW 18:46:20 10° SSW
Cosmos 1455 Rocket 3.6 18:39:36 10° SSE 18:43:34 36° E 18:47:33 10° NNE
BREEZE-M DEB (TANK) 3.6 18:28:40 10° WNW 18:43:34 80° NNE 18:47:06 10° ESE
STARLINK-1225 3.5 18:41:38 10° SW 18:45:38 75° SE 18:49:41 10° NE
STARLINK-1203 3.5 18:43:39 10° SW 18:47:35 85° SE 18:51:33 10° NE
Cosmos 1110 Rocket 4.3 18:43:33 10° N 18:48:38 47° ENE 18:53:38 10° SE
SL-16 R/B 2.7 18:44:21 10° S 18:49:28 37° ESE 18:54:37 10° NE
Cosmos 332 Rocket 3.8 18:45:00 10° NNW 18:49:54 69° ENE 18:54:47 10° SSE
Cosmos 2333 Rocket 4.3 18:45:01 10° WSW 18:49:57 30° NW 18:54:55 10° N
STARLINK-1230 3.5 18:46:15 10° SW 18:50:16 82° SE 18:54:19 10° NE
Cosmos 1892 Rocket 3.7 18:48:11 10° N 18:52:37 56° E 18:57:00 10° SSE
USA 186 3.0 18:50:12 10° SE 18:53:09 27° ENE 18:56:06 10° NNE
CSL-04 Rocket 4.0 18:48:13 10° S 18:53:31 70° WSW 18:58:48 10° NNW
STARLINK-1234 4.3 18:50:57 10° W 18:53:45 35° NNW 18:56:32 10° NE
ARGOS Delta rocket 4.2 18:49:14 10° SSE 18:54:04 51° ENE 18:59:12 10° N
STARLINK-1243 3.5 18:50:56 10° SW 18:54:58 89° SE 18:59:01 10° NE
Meteor 2-21 Rocket 4.5 18:50:04 10° N 18:56:09 90° WSW 19:02:13 10° S
Meteor 2-16 Rocket 4.4 18:50:39 10° N 18:56:50 77° E 19:02:58 10° SSE
Cosmos 1626 3.2 18:53:53 10° NNE 18:57:02 25° ENE 19:00:09 10° SE
STARLINK-1236 3.6 18:55:36 10° SW 18:59:38 85° NW 19:03:41 10° NE
Okean 1-7 Rocket 3.6 18:56:10 10° N 19:00:31 58° E 19:04:50 10° SSE
SJ-11-01 4.2 18:59:17 10° SSE 19:03:56 71° ENE 19:08:38 10° N
STARLINK-1116 4.5 19:00:28 10° NW 19:04:11 35° NNE 19:07:07 14° E
H-2A R/B 2.3 18:59:47 10° SSE 19:04:58 54° ENE 19:10:02 10° N
ATLAS CENTAUR Rocket 4.5 18:59:36 10° SW 19:05:31 42° SSE 19:27:08 15° ESE
STARLINK-1269 3.8 19:05:01 10° WSW 19:09:03 72° NW 19:13:05 10° NE
STARLINK-1118 1.9 19:08:09 10° NW 19:10:22 82° SW 19:11:31 24° SE
Cosmos 1544 Rocket 3.6 19:06:40 10° S 19:10:55 55° E 19:15:16 10° NNE
HJ-1C 4.0 19:09:47 10° S 19:13:05 59° W 19:16:25 10° NNW
STARLINK-1094 4.3 19:09:25 10° NW 19:13:12 40° NNE 19:15:46 18° E
STARLINK-1200 3.9 19:09:43 10° WSW 19:13:44 66° NW 19:17:46 10° NE
Cosmos 1745 Rocket 4.1 19:08:26 10° N 19:14:46 84° W 19:21:00 10° S
Cosmos 2297 4.0 19:10:49 10° NNW 19:16:19 50° ENE 19:20:56 15° SE
USA 234 3.2 19:10:33 10° NE 19:17:05 69° SE 19:23:35 10° SW
CZ-2C R/B 4.3 19:13:04 10° NNE 19:17:28 36° E 19:21:47 10° SSE
STARLINK-1117 4.2 19:13:54 10° NW 19:17:45 42° NNE 19:20:07 20° E
STARLINK-1192 4.0 19:14:24 10° WSW 19:18:24 61° NW 19:22:24 10° NE
Cosmos 1805 4.4 19:15:50 10° SSW 19:19:36 47° W 19:23:24 10° N
Cosmos 2237 Rocket 3.3 19:14:17 10° SW 19:19:41 47° WNW 19:25:07 10° NNE
Meteor 2-5 Rocket 4.0 19:14:27 10° NNW 19:20:06 71° W 19:25:36 10° S
STARLINK-1078 4.1 19:18:22 10° NW 19:22:15 45° NNE 19:24:26 23° E
ADEOS Rocket 4.4 19:15:57 10° N 19:22:18 44° WNW 19:28:01 10° SW
STARLINK-1244 4.2 19:19:13 10° WSW 19:23:12 56° NNW 19:27:12 10° NE
Cosmos 1302 Rocket 4.3 19:21:05 10° N 19:26:11 48° ENE 19:29:43 19° SE
STARLINK-1108 4.0 19:22:53 10° NW 19:26:48 49° NNE 19:28:47 25° E
Cosmos 1269 Rocket 4.0 19:21:38 10° SSW 19:26:55 88° WNW 19:32:15 10° NNE
STARLINK-1138 4.3 19:23:57 10° WSW 19:27:54 52° NNW 19:31:53 10° NE
Cosmos 2278 Rocket 3.6 19:23:14 10° NW 19:28:27 38° WSW 19:33:38 10° S
CZ-2C R/B 3.3 19:25:01 10° NE 19:29:31 29° E 19:32:38 17° SE
STARLINK-1066 2.8 19:28:05 10° NW 19:31:15 72° NE 19:32:18 37° ESE
STARLINK-1071 3.9 19:27:23 10° NW 19:31:20 52° NNE 19:33:08 28° E
STARLINK-1081 2.8 19:28:33 10° NW 19:31:40 73° NE 19:32:41 39° ESE
STARLINK-1070 2.8 19:29:00 10° NW 19:32:07 74° NE 19:33:06 39° ESE
STARLINK-1124 3.9 19:28:17 10° NW 19:32:21 54° NNE 19:34:14 29° E
STARLINK-1069 2.8 19:29:24 10° NW 19:32:34 75° NE 19:33:34 39° ESE
STARLINK-1143 4.5 19:28:46 10° WSW 19:32:42 48° NNW 19:36:39 10° NE
STARLINK-1085 2.8 19:29:51 10° NW 19:33:01 75° NE 19:34:00 40° ESE
ARGOS 3.1 19:27:38 10° SSE 19:33:02 81° ENE 19:38:27 10° N
STARLINK-1086 2.8 19:30:21 10° NW 19:33:29 76° NE 19:34:25 41° ESE
Cosmos 2251 Rocket 4.3 19:29:21 10° SSE 19:33:54 29° E 19:38:29 10° NE
STARLINK-1095 2.8 19:30:48 10° NW 19:33:55 77° NE 19:34:50 42° ESE
STARLINK-1077 2.8 19:31:14 10° NW 19:34:22 78° NE 19:35:16 42° ESE
STARLINK-1075 2.8 19:31:42 10° NW 19:34:50 79° NE 19:35:42 43° ESE
STARLINK-1093 2.8 19:32:07 10° NW 19:35:16 79° NE 19:36:10 43° ESE
Meteor 1-24 Rocket 3.9 19:29:57 10° NNW 19:35:26 70° W 19:40:44 10° S
STARLINK-1074 2.8 19:32:33 10° NW 19:35:43 80° NE 19:36:36 43° ESE
STARLINK-1110 3.8 19:31:54 10° NW 19:35:52 56° NE 19:37:29 32° E
STARLINK-1087 2.7 19:33:03 10° NW 19:36:10 81° NE 19:37:00 45° ESE
STARLINK-1088 2.7 19:33:30 10° NW 19:36:38 82° NE 19:37:26 46° ESE
STARLINK-1115 2.8 19:33:55 10° NW 19:37:05 83° NE 19:37:55 45° ESE
MOS 1 4.3 19:31:41 10° SSE 19:37:20 88° WSW 19:43:01 10° NNW
STARLINK-1076 2.8 19:34:21 10° NW 19:37:31 84° NE 19:38:20 46° ESE
STARLINK-1092 2.8 19:34:49 10° NW 19:37:59 85° NE 19:38:47 47° ESE
STARLINK-1080 2.7 19:35:18 10° NW 19:38:26 85° NE 19:39:10 48° ESE
STARLINK-1090 2.7 19:35:44 10° NW 19:38:51 86° NNE 19:39:36 49° ESE
STARLINK-1089 2.7 19:36:12 10° NW 19:39:19 87° NNE 19:40:02 50° SE
SL-24 R/B 4.1 19:34:56 10° NNE 19:39:22 52° E 19:43:15 10° S
STARLINK-1107 2.7 19:36:39 10° NW 19:39:46 88° NNE 19:40:28 51° SE
Cosmos 1470 2.6 19:35:59 10° S 19:39:48 71° E 19:43:41 10° NNE
Cosmos 2315 Rocket 4.0 19:37:34 10° S 19:43:52 86° E 19:50:16 10° N
SL-08 RB Rocket 3.6 19:40:53 18° SSE 19:44:14 75° ENE 19:48:48 10° N
STARLINK-1122 3.6 19:41:02 10° NW 19:45:03 66° NE 19:46:17 41° ESE
SJ-6B 2.9 19:42:00 15° S 19:45:22 84° WSW 19:49:31 10° NNW
MetOp-A 4.2 19:42:29 22° SE 19:45:51 58° ENE 19:51:07 10° N
Resurs 1-3 3.9 19:44:43 34° ESE 19:46:11 47° ENE 19:50:25 10° N
ISS -1.6 19:44:48 10° NNW 19:47:09 18° NNE 19:48:11 16° NE
Cosmos 1758 3.2 19:43:37 10° S 19:47:42 81° E 19:51:49 10° N
STARLINK-1126 3.5 19:45:39 10° NW 19:49:41 72° NE 19:50:44 46° ESE
BREEZE M DEB (TANK) 4.3 19:38:33 10° SW 19:51:46 51° SSE 19:53:49 32° E
CZ-2C R/B 3.4 19:46:41 10° S 19:51:46 64° WSW 19:56:38 10° NNW
Resurs 01 Rocket 2.1 19:53:04 38° E 19:53:35 40° ENE 19:57:42 10° N
IRIDIUM 104 4.4 19:49:01 10° N 19:54:09 56° E 19:56:26 31° SSE
STARLINK-1082 3.5 19:50:12 10° NW 19:54:15 78° NE 19:55:08 52° ESE
FREGAT/IRIS 4.3 19:52:27 13° SSW 19:54:23 28° W 19:56:49 10° NW
Abrixas rocket 2.7 19:52:03 10° SW 19:54:14 43° SSW 19:54:14 43° SSW
Cosmos 2369 Rocket 3.0 19:51:27 10° N 19:56:38 34° ENE 19:57:50 31° E
STARLINK-1100 3.4 19:54:46 10° NW 19:58:49 84° NE 19:59:31 59° ESE
Meteor 2-15 Rocket 4.3 19:53:51 10° S 19:59:55 82° E 20:06:01 10° N
IRIDIUM 114 4.2 19:58:07 10° N 20:03:20 68° E 20:05:35 34° SSE
STARLINK-1083 3.4 19:59:22 10° NW 20:03:26 90° SW 20:03:57 67° SE
SPOT 3 Rocket 3.5 20:00:43 23° SSE 20:04:01 87° WSW 20:09:16 10° NNW
Cosmos 1726 4.0 20:06:30 20° NNE 20:06:30 20° NNE 20:07:51 10° NNE
Nadezhda 1 Rocket 4.5 20:06:17 37° ESE 20:07:03 39° E 20:12:54 10° NNE
STARLINK-1125 3.4 20:04:00 10° NW 20:08:03 83° SW 20:08:23 73° SSE
Meteor 1-21 Rocket 4.1 20:04:08 10° N 20:09:42 69° E 20:11:31 42° SSE
STARLINK-1109 3.4 20:08:18 10° NW 20:12:22 77° SW 20:12:32 75° S
IRIDIUM 103 4.2 20:07:16 10° N 20:12:31 83° E 20:14:45 36° S
MOS 1 Rocket 3.5 20:09:21 10° NNE 20:14:36 80° ESE 20:19:07 15° S
Cosmos 1943 4.4 20:19:29 26° NE 20:19:29 26° NE 20:22:11 10° NE
STARLINK-1091 3.6 20:12:59 10° NW 20:17:01 71° SW 20:17:02 71° SW
Cosmos 292 Rocket 3.8 20:14:25 10° NNW 20:19:07 58° ENE 20:19:07 58° ENE
Cosmos 1943 Rocket 2.1 20:16:30 10° NNW 20:22:03 69° ENE 20:22:51 60° ESE
Cosmos 2074 Rocket 3.9 20:18:37 10° N 20:24:55 75° E 20:26:45 48° SSE
Cosmos 1953 2.7 20:29:29 59° W 20:29:38 60° W 20:33:34 10° N
STARLINK-1072 4.2 20:26:03 10° WNW 20:29:27 49° WSW 20:29:27 49° WSW
Meteor 2-10 3.9 20:28:33 46° S 20:30:12 86° E 20:35:44 10° N
NOSS 3-3 (A) 3.7 20:25:23 10° SSW 20:31:05 72° ESE 20:37:30 10° NE
NOSS 3-3 (C) 3.7 20:25:29 10° SSW 20:31:12 71° ESE 20:37:36 10° NE
Spot 2 Rocket 3.8 20:33:06 51° NE 20:33:06 51° NE 20:37:32 10° N
SL-16 R/B 3.9 20:28:31 10° WSW 20:33:35 33° WNW 20:38:41 10° N
STARLINK-1096 4.5 20:30:33 10° WNW 20:33:44 43° WSW 20:33:44 43° WSW
Cosmos 2084 Rocket 4.1 20:31:40 10° NNW 20:35:19 51° N 20:35:19 51° N
Cosmos 1610 Rocket 4.4 20:32:45 10° N 20:38:56 62° E 20:39:03 62° E
H-2A R/B 4.5 20:40:55 10° SW 20:44:39 19° W 20:48:21 10° NW
Terra 4.0 20:49:36 15° NNE 20:49:36 15° NNE 20:50:52 10° NNE
Meteor 1-16 Rocket 4.3 20:54:16 61° WSW 20:54:55 67° WNW 21:00:20 10° N
Cosmos 1603 3.7 20:53:25 49° SW 20:54:59 75° WNW 21:00:37 10° NNE
ATLAS 2AS CENTAUR R/B 3.5 20:49:55 10° NNW 20:56:58 38° NE 20:57:41 38° NE
USA 234 4.3 20:53:48 10° NE 20:59:51 42° NNW 21:05:53 10° W
MetOp-B 4.3 21:01:14 70° WNW 21:01:14 70° WNW 21:06:13 10° NNW
Cosmos 2327 Rocket 4.4 20:56:46 10° N 21:03:04 81° W 21:03:23 78° SW
CZ-2C R/B 4.1 21:05:11 10° N 21:09:47 33° WNW 21:14:10 11° SW
COSMOS 2455 4.5 21:07:12 10° N 21:11:09 23° NNE 21:11:09 23° NNE
Cosmos 1656 Rocket 4.5 21:18:39 10° NNW 21:22:37 46° NNW 21:22:37 46° NNW
ERS-1 Rocket 4.5 21:28:47 32° N 21:28:47 32° N 21:31:27 10° NNW
Resurs 01 Rocket 4.0 21:30:38 18° W 21:30:38 18° W 21:33:19 10° NW
Cosmos 2369 Rocket 3.6 21:35:30 10° NW 21:39:39 33° W 21:39:39 33° W
Cosmos 1943 Rocket 4.5 22:01:54 10° WNW 22:04:25 15° W 22:04:25 15° W
ATLAS 2AS CENTAUR R/B 4.1 22:41:01 10° NW 22:45:07 33° WNW 22:45:07 33° WNW
